User: anonymous   Login
Location: Columbia
(38.9520°N, 92.3340°W)
Time: 05:11:16
(UTC-06:00)
Language:

Cosmos 1603 - Orbit

View from above orbital plane
View from above orbital plane
View from above satellite
View from above satellite

Ground track
Ground track

The orbit data is extracted from the following two-line orbital elements,

1 15333U 84106A   15060.39210023  .00000391  00000-0  23011-3 0  9999
2 15333 071.0260 048.6883 0018204 039.7770 123.0409 14.13983107569699
Epoch (UTC): 01 March 2015 09:24:37
Eccentricity: 0.0018204
inclination: 71.0260°
perigee height: 832 km
apogee height: 859 km
right ascension of ascending node: 48.6883°
argument of perigee: 39.7770°
revolutions per day: 14.13983107
mean anomaly at epoch: 123.0409°
orbit number at epoch: 56969

The dashed part of the orbit path shows where the satellite is in the earth's shadow,  

DLR